Find Chuangxin-16B

NORAD ID: 53876 Int'l Des: 2022-102 Owner: IMICAS Country: CN operational
LEOCIRCULAR

Live Position

Loading 3D Globe...

About Chuangxin-16B

Description loading...

Upcoming Passes

Passes for default location (London). Set your location on the main map for personalized predictions.

Altitude History

Loading altitude history...

Two-Line Element Set

1 53876U 22102B 26105.15186392 .00023431 00000-0 54640-3 0 9990
2 53876 28.9915 268.2620 0002056 18.2099 341.8583 15.40835996196966
Epoch: Apr 15, 2026 • Age: 7 hours

Current Status

Altitude 441.2 km
Velocity 7.65 km/s
Sub-Earth Point 26.38°N, 26.51°W
Launch Date Aug 23, 2022
Age 3.6 years
Type other

Technical Details

Classification Payload
Mass 100.00 kg
Dry Mass 100.00 kg
Total Mass 100.00 kg
Length 1.00 m
Diameter 0.50 m
Span 2.00 m
Shape Box+pan
Manufacturer IMICAS
Bus Type CX16
Phase Status In Orbit
Owner/State IMICAS/CN

Most Searched